| time (UTC) | temp C | wind direction | speed KPH | gust KPH | rain 1hr cm | rain 24hr cm | rain mn cm | humidity % | barometer mb |
| 20260901112803 | 26 | 111 | 0.0 | 1.6 | 0.00 | 0.00 | 0.00 | 67 | 1014.9 |
| 20260901112518 | 26 | 111 | 0.0 | 1.6 | 0.00 | 0.00 | 0.00 | 67 | 1014.9 |
| 20260901111749 | 26 | 276 | 0.0 | 0.0 | 0.00 | 0.00 | 0.00 | 67 | 1014.8 |
| 20260901111220 | 26 | 276 | 0.0 | 0.0 | 0.00 | 0.00 | 0.00 | 66 | 1014.8 |
| 20260901110703 | 26 | 139 | 0.0 | 3.2 | 0.00 | 0.00 | 0.00 | 65 | 1014.8 |
| 20260901110139 | 26 | 158 | 0.0 | 3.2 | 0.00 | 0.00 | 0.00 | 65 | 1014.8 |
| 20260901105638 | 26 | 167 | 0.0 | 1.6 | 0.00 | 0.00 | 0.00 | 65 | 1014.8 |
| 20260901105138 | 27 | 132 | 0.0 | 1.6 | 0.00 | 0.00 | 0.00 | 64 | 1014.7 |
| 20260901104617 | 27 | 165 | 0.0 | 3.2 | 0.00 | 0.00 | 0.00 | 64 | 1014.7 |
| 20260901104046 | 27 | 165 | 0.0 | 6.4 | 0.00 | 0.00 | 0.00 | 63 | 1014.7 |
| 20260901103546 | 27 | 183 | 1.6 | 6.4 | 0.00 | 0.00 | 0.00 | 63 | 1014.8 |
| 20260901103021 | 27 | 293 | 1.6 | 8.0 | 0.00 | 0.00 | 0.00 | 62 | 1014.8 |
| 20260901102457 | 27 | 196 | 1.6 | 6.4 | 0.00 | 0.00 | 0.00 | 62 | 1014.8 |
| 20260901101931 | 27 | 239 | 0.0 | 6.4 | 0.00 | 0.00 | 0.00 | 62 | 1014.8 |
| 20260901101405 | 27 | 158 | 0.0 | 4.8 | 0.00 | 0.00 | 0.00 | 62 | 1014.8 |
| 20260901100905 | 27 | 225 | 1.6 | 9.7 | 0.00 | 0.00 | 0.00 | 62 | 1014.8 |
| 20260901100338 | 27 | 117 | 1.6 | 11.3 | 0.00 | 0.00 | 0.00 | 62 | 1014.8 |
| 20260901100055 | 27 | 127 | 1.6 | 11.3 | 0.00 | 0.00 | 0.00 | 62 | 1014.8 |
| 20260901095317 | 27 | 158 | 0.0 | 4.8 | 0.00 | 0.00 | 0.00 | 62 | 1014.9 |
| 20260901094758 | 28 | 156 | 1.6 | 4.8 | 0.00 | 0.00 | 0.00 | 62 | 1014.9 |
| 20260901094250 | 28 | 162 | 1.6 | 9.7 | 0.00 | 0.00 | 0.00 | 61 | 1014.9 |
| 20260901093748 | 28 | 229 | 1.6 | 9.7 | 0.00 | 0.00 | 0.00 | 61 | 1014.9 |
| 20260901093223 | 28 | 206 | 0.0 | 6.4 | 0.00 | 0.00 | 0.00 | 61 | 1015.0 |
| 20260901092945 | 28 | 236 | 1.6 | 6.4 | 0.00 | 0.00 | 0.00 | 61 | 1014.9 |
| 20260901092216 | 28 | 286 | 1.6 | 6.4 | 0.00 | 0.00 | 0.00 | 61 | 1014.9 |
| 20260901091911 | 28 | 146 | 1.6 | 6.4 | 0.00 | 0.00 | 0.00 | 60 | 1015.0 |
| 20260901091133 | 28 | 130 | 1.6 | 6.4 | 0.00 | 0.00 | 0.00 | 60 | 1015.0 |
| 20260901090632 | 28 | 124 | 1.6 | 4.8 | 0.00 | 0.00 | 0.00 | 59 | 1014.9 |
| 20260901090132 | 28 | 111 | 0.0 | 4.8 | 0.00 | 0.00 | 0.00 | 58 | 1014.8 |
| 20260901085852 | 28 | 167 | 0.0 | 4.8 | 0.00 | 0.00 | 0.00 | 58 | 1014.7 |
| 20260901085107 | 28 | 111 | 0.0 | 4.8 | 0.00 | 0.00 | 0.00 | 57 | 1014.7 |
| 20260901084606 | 28 | 153 | 1.6 | 4.8 | 0.00 | 0.00 | 0.00 | 56 | 1014.7 |
| 20260901084326 | 28 | 121 | 1.6 | 4.8 | 0.00 | 0.00 | 0.00 | 56 | 1014.7 |
| 20260901083600 | 28 | 98 | 3.2 | 8.0 | 0.00 | 0.00 | 0.00 | 55 | 1014.6 |
| 20260901083033 | 28 | 174 | 3.2 | 11.3 | 0.00 | 0.00 | 0.00 | 55 | 1014.5 |
| 20260901082530 | 28 | 220 | 3.2 | 9.7 | 0.00 | 0.00 | 0.00 | 55 | 1014.5 |
| 20260901082028 | 29 | 245 | 3.2 | 8.0 | 0.00 | 0.00 | 0.00 | 55 | 1014.6 |
| 20260901081500 | 29 | 108 | 3.2 | 8.0 | 0.00 | 0.00 | 0.00 | 55 | 1014.7 |
| 20260901081220 | 29 | 146 | 1.6 | 11.3 | 0.00 | 0.00 | 0.00 | 55 | 1014.6 |
| 20260901080430 | 29 | 186 | 1.6 | 8.0 | 0.00 | 0.00 | 0.00 | 55 | 1014.5 |
| 20260901080129 | 29 | 233 | 1.6 | 6.4 | 0.00 | 0.00 | 0.00 | 56 | 1014.5 |
| 20260901075340 | 29 | 147 | 1.6 | 6.4 | 0.00 | 0.00 | 0.00 | 56 | 1014.5 |
| 20260901074836 | 29 | 247 | 1.6 | 6.4 | 0.00 | 0.00 | 0.00 | 56 | 1014.5 |
| 20260901074335 | 29 | 130 | 1.6 | 6.4 | 0.00 | 0.00 | 0.00 | 56 | 1014.5 |
| 20260901073818 | 29 | 150 | 1.6 | 6.4 | 0.00 | 0.00 | 0.00 | 55 | 1014.5 |
| 20260901073321 | 29 | 119 | 1.6 | 8.0 | 0.00 | 0.00 | 0.00 | 55 | 1014.5 |
| 20260901073012 | 29 | 138 | 1.6 | 11.3 | 0.00 | 0.00 | 0.00 | 54 | 1014.5 |
| 20260901072450 | 29 | 141 | 3.2 | 11.3 | 0.00 | 0.00 | 0.00 | 53 | 1014.5 |
| 20260901071701 | 29 | 124 | 3.2 | 8.0 | 0.00 | 0.00 | 0.00 | 53 | 1014.5 |
| 20260901071159 | 29 | 132 | 3.2 | 12.9 | 0.00 | 0.00 | 0.00 | 53 | 1014.4 |
| 20260901070630 | 29 | 172 | 3.2 | 9.7 | 0.00 | 0.00 | 0.00 | 53 | 1014.4 |
| 20260901070128 | 29 | 141 | 3.2 | 11.3 | 0.00 | 0.00 | 0.00 | 53 | 1014.5 |
| 20260901065600 | 30 | 152 | 3.2 | 11.3 | 0.00 | 0.00 | 0.00 | 52 | 1014.4 |
| 20260901065542 | 30 | 132 | 3.2 | 11.3 | 0.00 | 0.00 | 0.00 | 52 | 1014.5 |
| 20260901064530 | 30 | 146 | 3.2 | 11.3 | 0.00 | 0.00 | 0.00 | 52 | 1014.4 |
| 20260901064247 | 30 | 133 | 3.2 | 11.3 | 0.00 | 0.00 | 0.00 | 52 | 1014.3 |
| 20260901063524 | 30 | 146 | 1.6 | 11.3 | 0.00 | 0.00 | 0.00 | 52 | 1014.3 |
| 20260901062959 | 30 | 143 | 1.6 | 11.3 | 0.00 | 0.00 | 0.00 | 51 | 1014.3 |
| 20260901062434 | 30 | 122 | 1.6 | 4.8 | 0.00 | 0.00 | 0.00 | 51 | 1014.3 |
| 20260901061906 | 30 | 110 | 1.6 | 6.4 | 0.00 | 0.00 | 0.00 | 50 | 1014.3 |
| 20260901061403 | 30 | 136 | 1.6 | 6.4 | 0.00 | 0.00 | 0.00 | 50 | 1014.2 |
| 20260901060900 | 30 | 126 | 3.2 | 8.0 | 0.00 | 0.00 | 0.00 | 50 | 1014.2 |
| 20260901060357 | 30 | 125 | 3.2 | 9.7 | 0.00 | 0.00 | 0.00 | 49 | 1014.1 |
| 20260901055854 | 30 | 129 | 3.2 | 9.7 | 0.00 | 0.00 | 0.00 | 49 | 1014.0 |
| 20260901055350 | 30 | 103 | 3.2 | 9.7 | 0.00 | 0.00 | 0.00 | 49 | 1013.9 |
| 20260901055112 | 30 | 135 | 3.2 | 9.7 | 0.00 | 0.00 | 0.00 | 49 | 1013.9 |
| 20260901054347 | 30 | 165 | 3.2 | 8.0 | 0.00 | 0.00 | 0.00 | 49 | 1013.8 |
| 20260901053819 | 30 | 105 | 3.2 | 9.7 | 0.00 | 0.00 | 0.00 | 49 | 1013.9 |
| 20260901053312 | 30 | 117 | 3.2 | 9.7 | 0.00 | 0.00 | 0.00 | 49 | 1013.8 |
| 20260901052808 | 30 | 116 | 3.2 | 9.7 | 0.00 | 0.00 | 0.00 | 48 | 1013.7 |
| 20260901052308 | 30 | 117 | 3.2 | 9.7 | 0.00 | 0.00 | 0.00 | 47 | 1013.7 |
| 20260901051740 | 30 | 108 | 4.8 | 12.9 | 0.00 | 0.00 | 0.00 | 47 | 1013.7 |
| 20260901051239 | 30 | 108 | 4.8 | 12.9 | 0.00 | 0.00 | 0.00 | 46 | 1013.7 |
| 20260901050734 | 30 | 147 | 3.2 | 12.9 | 0.00 | 0.00 | 0.00 | 46 | 1013.7 |
| 20260901050453 | 30 | 129 | 3.2 | 9.7 | 0.00 | 0.00 | 0.00 | 47 | 1013.6 |
| 20260901045708 | 30 | 129 | 1.6 | 8.0 | 0.00 | 0.00 | 0.00 | 47 | 1013.6 |
| 20260901045207 | 30 | 119 | 1.6 | 6.4 | 0.00 | 0.00 | 0.00 | 47 | 1013.7 |
| 20260901044638 | 30 | 139 | 1.6 | 6.4 | 0.00 | 0.00 | 0.00 | 48 | 1013.5 |
| 20260901044134 | 29 | 124 | 0.0 | 6.4 | 0.00 | 0.00 | 0.00 | 49 | 1013.5 |
| 20260901043611 | 28 | 121 | 0.0 | 1.6 | 0.00 | 0.00 | 0.00 | 50 | 1013.5 |
| 20260901043310 | 28 | 121 | 0.0 | 1.6 | 0.00 | 0.00 | 0.00 | 52 | 1013.4 |
| 20260901042545 | 28 | 121 | 0.0 | 1.6 | 0.00 | 0.00 | 0.00 | 54 | 1013.5 |
| 20260901042022 | 27 | 121 | 0.0 | 0.0 | 0.00 | 0.00 | 0.00 | 56 | 1013.4 |
| 20260901041502 | 27 | 121 | 0.0 | 1.6 | 0.00 | 0.00 | 0.00 | 56 | 1013.5 |
| 20260901041000 | 27 | 121 | 0.0 | 1.6 | 0.00 | 0.00 | 0.00 | 57 | 1013.5 |
| 20260901040454 | 27 | 121 | 0.0 | 0.0 | 0.00 | 0.00 | 0.00 | 55 | 1013.3 |
| 20260901035955 | 28 | 121 | 0.0 | 0.0 | 0.00 | 0.00 | 0.00 | 54 | 1013.3 |
| 20260901035451 | 28 | 121 | 0.0 | 0.0 | 0.00 | 0.00 | 0.00 | 54 | 1013.4 |
| 20260901034950 | 28 | 121 | 0.0 | 0.0 | 0.00 | 0.00 | 0.00 | 52 | 1013.4 |
| 20260901034427 | 28 | 121 | 0.0 | 0.0 | 0.00 | 0.00 | 0.00 | 52 | 1013.4 |
| 20260901033926 | 29 | 121 | 0.0 | 0.0 | 0.00 | 0.00 | 0.00 | 51 | 1013.4 |
| 20260901033422 | 30 | 121 | 0.0 | 0.0 | 0.00 | 0.00 | 0.00 | 50 | 1013.3 |
| 20260901032901 | 30 | 121 | 0.0 | 0.0 | 0.00 | 0.00 | 0.00 | 49 | 1013.3 |
| 20260901032347 | 30 | 121 | 0.0 | 0.0 | 0.00 | 0.00 | 0.00 | 47 | 1013.3 |
| 20260901031846 | 31 | 121 | 0.0 | 0.0 | 0.00 | 0.00 | 0.00 | 47 | 1013.3 |
| 20260901031610 | 31 | 121 | 0.0 | 0.0 | 0.00 | 0.00 | 0.00 | 45 | 1013.3 |
| 20260901030828 | 31 | 121 | 0.0 | 0.0 | 0.00 | 0.00 | 0.00 | 43 | 1013.2 |
| 20260901030308 | 31 | 121 | 0.0 | 0.0 | 0.00 | 0.00 | 0.00 | 42 | 1013.1 |
| 20260901025742 | 31 | 121 | 0.0 | 0.0 | 0.00 | 0.00 | 0.00 | 42 | 1013.1 |
| 20260901025456 | 31 | 121 | 0.0 | 0.0 | 0.00 | 0.00 | 0.00 | 42 | 1013.0 |
| 20260901024705 | 31 | 121 | 0.0 | 0.0 | 0.00 | 0.00 | 0.00 | 42 | 1012.9 |
| 20260901024142 | 32 | 121 | 0.0 | 0.0 | 0.00 | 0.00 | 0.00 | 42 | 1012.8 |
| 20260901023621 | 32 | 121 | 0.0 | 0.0 | 0.00 | 0.00 | 0.00 | 43 | 1012.8 |
| 20260901023119 | 32 | 121 | 0.0 | 0.0 | 0.00 | 0.00 | 0.00 | 43 | 1012.7 |
| 20260901022620 | 32 | 128 | 0.0 | 0.0 | 0.00 | 0.00 | 0.00 | 42 | 1012.7 |
| 20260901022054 | 32 | 128 | 0.0 | 1.6 | 0.00 | 0.00 | 0.00 | 41 | 1012.6 |
| 20260901021549 | 32 | 128 | 0.0 | 1.6 | 0.00 | 0.00 | 0.00 | 40 | 1012.6 |
| 20260901021030 | 32 | 128 | 0.0 | 1.6 | 0.00 | 0.00 | 0.00 | 40 | 1012.5 |
| 20260901020459 | 32 | 128 | 0.0 | 1.6 | 0.00 | 0.00 | 0.00 | 40 | 1012.5 |
| 20260901015934 | 32 | 122 | 0.0 | 0.0 | 0.00 | 0.00 | 0.00 | 40 | 1012.4 |
| 20260901015640 | 33 | 122 | 0.0 | 3.2 | 0.00 | 0.00 | 0.00 | 39 | 1012.4 |
| 20260901014847 | 33 | 139 | 0.0 | 3.2 | 0.00 | 0.00 | 0.00 | 38 | 1012.4 |
| 20260901014329 | 33 | 121 | 0.0 | 1.6 | 0.00 | 0.00 | 0.00 | 38 | 1012.4 |
| 20260901013803 | 33 | 123 | 0.0 | 1.6 | 0.00 | 0.00 | 0.00 | 37 | 1012.4 |
| 20260901013708 | 33 | 113 | 0.0 | 1.6 | 0.00 | 0.00 | 0.00 | 36 | 1012.4 |
| 20260901013327 | 33 | 113 | 0.0 | 1.6 | 0.00 | 0.00 | 0.00 | 37 | 1012.3 |
| 20260901012231 | 33 | 134 | 0.0 | 1.6 | 0.00 | 0.00 | 0.00 | 36 | 1012.2 |
| 20260901011727 | 34 | 134 | 0.0 | 3.2 | 0.00 | 0.00 | 0.00 | 35 | 1012.3 |
| 20260901011158 | 34 | 127 | 0.0 | 4.8 | 0.00 | 0.00 | 0.00 | 34 | 1012.2 |
| 20260901010658 | 34 | 148 | 1.6 | 3.2 | 0.00 | 0.00 | 0.00 | 33 | 1012.2 |
| 20260901010153 | 35 | 132 | 1.6 | 6.4 | 0.00 | 0.00 | 0.00 | 32 | 1012.1 |
| 20260901005653 | 35 | 140 | 0.0 | 4.8 | 0.00 | 0.00 | 0.00 | 32 | 1012.1 |
| 20260901005127 | 35 | 139 | 1.6 | 6.4 | 0.00 | 0.00 | 0.00 | 31 | 1012.1 |
| 20260901004846 | 35 | 131 | 1.6 | 4.8 | 0.00 | 0.00 | 0.00 | 31 | 1012.0 |
| 20260901004033 | 35 | 121 | 3.2 | 9.7 | 0.00 | 0.00 | 0.00 | 30 | 1012.1 |
| 20260901003534 | 36 | 120 | 3.2 | 9.7 | 0.00 | 0.00 | 0.00 | 29 | 1012.0 |
| 20260901003005 | 36 | 133 | 3.2 | 12.9 | 0.00 | 0.00 | 0.00 | 28 | 1012.0 |
| 20260901002501 | 36 | 132 | 4.8 | 12.9 | 0.00 | 0.00 | 0.00 | 28 | 1012.0 |
| 20260901001955 | 36 | 110 | 4.8 | 12.9 | 0.00 | 0.00 | 0.00 | 28 | 1012.0 |
| 20260901001720 | 37 | 101 | 3.2 | 9.7 | 0.00 | 0.00 | 0.00 | 28 | 1012.0 |
| 20260901001416 | 37 | 167 | 3.2 | 9.7 | 0.00 | 0.00 | 0.00 | 27 | 1012.1 |
| 20260901000359 | 37 | 130 | 1.6 | 8.0 | 0.00 | 0.00 | 0.00 | 27 | 1012.0 |
| 20260831235856 | 37 | 120 | 3.2 | 8.0 | 0.00 | 0.00 | 0.00 | 26 | 1012.0 |
| 20260831235340 | 37 | 101 | 4.8 | 12.9 | 0.00 | 0.00 | 0.00 | 26 | 1012.1 |
| 20260831234946 | 37 | 121 | 3.2 | 11.3 | 0.00 | 0.00 | 0.00 | 26 | 1012.1 |
| 20260831234218 | 37 | 113 | 1.6 | 9.7 | 0.00 | 0.00 | 0.00 | 26 | 1012.1 |
| 20260831233713 | 37 | 112 | 1.6 | 8.0 | 0.00 | 0.00 | 0.00 | 27 | 1012.1 |
| 20260831233146 | 37 | 155 | 3.2 | 9.7 | 0.00 | 0.00 | 0.00 | 26 | 1012.0 |
| 20260831232622 | 37 | 151 | 3.2 | 11.3 | 0.00 | 0.00 | 0.00 | 26 | 1012.0 |
| 20260831232053 | 37 | 127 | 3.2 | 11.3 | 0.00 | 0.00 | 0.00 | 25 | 1012.0 |
| 20260831231527 | 37 | 158 | 3.2 | 14.5 | 0.00 | 0.00 | 0.00 | 26 | 1011.9 |
| 20260831231223 | 37 | 135 | 3.2 | 9.7 | 0.00 | 0.00 | 0.00 | 25 | 1012.0 |
| 20260831230435 | 37 | 218 | 4.8 | 11.3 | 0.00 | 0.00 | 0.00 | 25 | 1012.0 |
| 20260831225907 | 38 | 141 | 4.8 | 12.9 | 0.00 | 0.00 | 0.00 | 24 | 1012.1 |
| 20260831225403 | 38 | 134 | 4.8 | 12.9 | 0.00 | 0.00 | 0.00 | 24 | 1012.1 |
| 20260831224838 | 38 | 176 | 4.8 | 14.5 | 0.00 | 0.00 | 0.00 | 24 | 1012.2 |
| 20260831224309 | 38 | 233 | 3.2 | 14.5 | 0.00 | 0.00 | 0.00 | 24 | 1012.2 |
| 20260831223807 | 38 | 158 | 3.2 | 9.7 | 0.00 | 0.00 | 0.00 | 24 | 1012.2 |
| 20260831223303 | 38 | 107 | 4.8 | 9.7 | 0.00 | 0.00 | 0.00 | 24 | 1012.3 |
| 20260831222802 | 38 | 232 | 4.8 | 11.3 | 0.00 | 0.00 | 0.00 | 24 | 1012.3 |
| 20260831222232 | 38 | 136 | 3.2 | 11.3 | 0.00 | 0.00 | 0.00 | 25 | 1012.3 |
| 20260831221953 | 38 | 113 | 3.2 | 9.7 | 0.00 | 0.00 | 0.00 | 25 | 1012.4 |
| 20260831221223 | 38 | 115 | 4.8 | 12.9 | 0.00 | 0.00 | 0.00 | 24 | 1012.4 |
| 20260831220722 | 38 | 117 | 4.8 | 14.5 | 0.00 | 0.00 | 0.00 | 24 | 1012.4 |
| 20260831220154 | 38 | 152 | 4.8 | 12.9 | 0.00 | 0.00 | 0.00 | 24 | 1012.5 |
| 20260831215651 | 38 | 222 | 4.8 | 11.3 | 0.00 | 0.00 | 0.00 | 24 | 1012.5 |
| 20260831215120 | 38 | 119 | 4.8 | 11.3 | 0.00 | 0.00 | 0.00 | 24 | 1012.5 |
| 20260831214556 | 38 | 94 | 6.4 | 14.5 | 0.00 | 0.00 | 0.00 | 25 | 1012.6 |
| 20260831214029 | 38 | 215 | 4.8 | 14.5 | 0.00 | 0.00 | 0.00 | 24 | 1012.6 |
| 20260831213501 | 38 | 159 | 4.8 | 12.9 | 0.00 | 0.00 | 0.00 | 24 | 1012.7 |
| 20260831212959 | 38 | 161 | 3.2 | 9.7 | 0.00 | 0.00 | 0.00 | 25 | 1012.7 |
| 20260831212654 | 38 | 129 | 4.8 | 16.1 | 0.00 | 0.00 | 0.00 | 26 | 1012.8 |
| 20260831211905 | 38 | 126 | 4.8 | 16.1 | 0.00 | 0.00 | 0.00 | 26 | 1012.8 |
| 20260831211404 | 38 | 208 | 6.4 | 16.1 | 0.00 | 0.00 | 0.00 | 24 | 1012.9 |
| 20260831210855 | 38 | 146 | 4.8 | 16.1 | 0.00 | 0.00 | 0.00 | 25 | 1013.0 |
| 20260831210354 | 38 | 229 | 4.8 | 12.9 | 0.00 | 0.00 | 0.00 | 26 | 1013.0 |
| 20260831205828 | 37 | 120 | 6.4 | 16.1 | 0.00 | 0.00 | 0.00 | 26 | 1013.1 |
| 20260831205544 | 38 | 122 | 6.4 | 17.7 | 0.00 | 0.00 | 0.00 | 26 | 1013.2 |
| 20260831204818 | 38 | 147 | 4.8 | 17.7 | 0.00 | 0.00 | 0.00 | 26 | 1013.2 |
| 20260831204249 | 38 | 126 | 6.4 | 14.5 | 0.00 | 0.00 | 0.00 | 26 | 1013.4 |
| 20260831203747 | 38 | 135 | 4.8 | 14.5 | 0.00 | 0.00 | 0.00 | 26 | 1013.4 |
| 20260831203244 | 38 | 207 | 6.4 | 16.1 | 0.00 | 0.00 | 0.00 | 25 | 1013.5 |
| 20260831202718 | 38 | 109 | 4.8 | 17.7 | 0.00 | 0.00 | 0.00 | 25 | 1013.5 |
| 20260831202203 | 38 | 123 | 3.2 | 16.1 | 0.00 | 0.00 | 0.00 | 25 | 1013.6 |
| 20260831201703 | 38 | 114 | 6.4 | 16.1 | 0.00 | 0.00 | 0.00 | 24 | 1013.7 |
| 20260831201203 | 37 | 247 | 6.4 | 16.1 | 0.00 | 0.00 | 0.00 | 26 | 1013.7 |
| 20260831200701 | 38 | 148 | 4.8 | 16.1 | 0.00 | 0.00 | 0.00 | 26 | 1013.7 |
| 20260831200201 | 38 | 186 | 6.4 | 16.1 | 0.00 | 0.00 | 0.00 | 25 | 1013.9 |
| 20260831195915 | 38 | 250 | 4.8 | 16.1 | 0.00 | 0.00 | 0.00 | 27 | 1014.0 |
| 20260831195152 | 38 | 165 | 4.8 | 16.1 | 0.00 | 0.00 | 0.00 | 26 | 1014.1 |
| 20260831194649 | 38 | 107 | 6.4 | 12.9 | 0.00 | 0.00 | 0.00 | 27 | 1014.1 |
| 20260831194146 | 37 | 230 | 8.0 | 17.7 | 0.00 | 0.00 | 0.00 | 30 | 1014.2 |
| 20260831193621 | 37 | 210 | 6.4 | 17.7 | 0.00 | 0.00 | 0.00 | 29 | 1014.3 |
| 20260831193055 | 37 | 134 | 6.4 | 16.1 | 0.00 | 0.00 | 0.00 | 29 | 1014.4 |
| 20260831192530 | 37 | 221 | 6.4 | 14.5 | 0.00 | 0.00 | 0.00 | 30 | 1014.4 |
| 20260831192001 | 37 | 231 | 6.4 | 14.5 | 0.00 | 0.00 | 0.00 | 30 | 1014.5 |
| 20260831191500 | 37 | 110 | 6.4 | 14.5 | 0.00 | 0.00 | 0.00 | 31 | 1014.6 |
| 20260831190931 | 37 | 77 | 6.4 | 14.5 | 0.00 | 0.00 | 0.00 | 31 | 1014.5 |
| 20260831190427 | 37 | 214 | 6.4 | 14.5 | 0.00 | 0.00 | 0.00 | 31 | 1014.5 |
| 20260831185925 | 37 | 115 | 6.4 | 20.9 | 0.00 | 0.00 | 0.00 | 31 | 1014.6 |
| 20260831185424 | 37 | 159 | 6.4 | 20.9 | 0.00 | 0.00 | 0.00 | 30 | 1014.7 |
| 20260831184855 | 37 | 105 | 6.4 | 17.7 | 0.00 | 0.00 | 0.00 | 31 | 1014.7 |
| 20260831184616 | 37 | 125 | 6.4 | 17.7 | 0.00 | 0.00 | 0.00 | 32 | 1014.7 |
| 20260831183849 | 37 | 120 | 6.4 | 17.7 | 0.00 | 0.00 | 0.00 | 31 | 1014.8 |
| 20260831183348 | 37 | 153 | 6.4 | 16.1 | 0.00 | 0.00 | 0.00 | 31 | 1014.8 |
| 20260831182818 | 37 | 117 | 6.4 | 16.1 | 0.00 | 0.00 | 0.00 | 31 | 1014.9 |
| 20260831182728 | 37 | 127 | 6.4 | 14.5 | 0.00 | 0.00 | 0.00 | 29 | 1014.9 |
| 20260831181747 | 37 | 164 | 3.2 | 14.5 | 0.00 | 0.00 | 0.00 | 33 | 1015.0 |
| 20260831181219 | 37 | 120 | 3.2 | 11.3 | 0.00 | 0.00 | 0.00 | 32 | 1015.1 |
| 20260831180717 | 36 | 115 | 4.8 | 12.9 | 0.00 | 0.00 | 0.00 | 32 | 1015.2 |
| 20260831180153 | 37 | 231 | 4.8 | 12.9 | 0.00 | 0.00 | 0.00 | 32 | 1015.3 |
| 20260831175627 | 36 | 129 | 3.2 | 12.9 | 0.00 | 0.00 | 0.00 | 32 | 1015.4 |
| 20260831175121 | 36 | 160 | 3.2 | 12.9 | 0.00 | 0.00 | 0.00 | 34 | 1015.5 |
| 20260831174619 | 36 | 249 | 4.8 | 16.1 | 0.00 | 0.00 | 0.00 | 33 | 1015.6 |
| 20260831174051 | 36 | 148 | 4.8 | 16.1 | 0.00 | 0.00 | 0.00 | 35 | 1015.6 |
| 20260831173812 | 36 | 222 | 3.2 | 12.9 | 0.00 | 0.00 | 0.00 | 36 | 1015.7 |
| 20260831173045 | 36 | 243 | 4.8 | 14.5 | 0.00 | 0.00 | 0.00 | 37 | 1015.8 |
| 20260831172545 | 36 | 246 | 3.2 | 14.5 | 0.00 | 0.00 | 0.00 | 36 | 1015.8 |
| 20260831172016 | 35 | 117 | 3.2 | 12.9 | 0.00 | 0.00 | 0.00 | 37 | 1015.9 |
| 20260831171514 | 35 | 161 | 6.4 | 14.5 | 0.00 | 0.00 | 0.00 | 37 | 1015.9 |
| 20260831170945 | 35 | 248 | 6.4 | 14.5 | 0.00 | 0.00 | 0.00 | 37 | 1016.0 |
| 20260831170441 | 35 | 213 | 4.8 | 12.9 | 0.00 | 0.00 | 0.00 | 38 | 1016.0 |
| 20260831165935 | 35 | 195 | 6.4 | 16.1 | 0.00 | 0.00 | 0.00 | 39 | 1016.0 |
| 20260831165436 | 35 | 267 | 4.8 | 16.1 | 0.00 | 0.00 | 0.00 | 40 | 1016.0 |
| 20260831164909 | 35 | 130 | 4.8 | 14.5 | 0.00 | 0.00 | 0.00 | 38 | 1016.0 |
| 20260831164903 | 35 | 165 | 4.8 | 14.5 | 0.00 | 0.00 | 0.00 | 39 | 1016.2 |
| 20260831163841 | 34 | 162 | 4.8 | 14.5 | 0.00 | 0.00 | 0.00 | 41 | 1016.1 |
| 20260831163340 | 34 | 239 | 6.4 | 14.5 | 0.00 | 0.00 | 0.00 | 40 | 1016.1 |
| 20260831162814 | 34 | 210 | 6.4 | 16.1 | 0.00 | 0.00 | 0.00 | 42 | 1016.2 |
| 20260831162251 | 34 | 172 | 4.8 | 16.1 | 0.00 | 0.00 | 0.00 | 40 | 1016.2 |
| 20260831161750 | 34 | 209 | 1.6 | 11.3 | 0.00 | 0.00 | 0.00 | 41 | 1016.2 |
| 20260831161227 | 34 | 255 | 3.2 | 11.3 | 0.00 | 0.00 | 0.00 | 41 | 1016.3 |
| 20260831160927 | 33 | 122 | 3.2 | 9.7 | 0.00 | 0.00 | 0.00 | 42 | 1016.3 |
| 20260831160428 | 33 | 155 | 3.2 | 9.7 | 0.00 | 0.00 | 0.00 | 42 | 1016.2 |
| 20260831155703 | 33 | 248 | 4.8 | 11.3 | 0.00 | 0.00 | 0.00 | 41 | 1016.3 |
| 20260831155205 | 33 | 125 | 6.4 | 14.5 | 0.00 | 0.00 | 0.00 | 44 | 1016.2 |
| 20260831154644 | 32 | 219 | 4.8 | 14.5 | 0.00 | 0.00 | 0.00 | 43 | 1016.2 |
| 20260831154145 | 32 | 142 | 4.8 | 14.5 | 0.00 | 0.00 | 0.00 | 42 | 1016.3 |
| 20260831153637 | 32 | 249 | 4.8 | 14.5 | 0.00 | 0.00 | 0.00 | 43 | 1016.3 |
| 20260831153140 | 32 | 251 | 6.4 | 14.5 | 0.00 | 0.00 | 0.00 | 43 | 1016.2 |
| 20260831152618 | 32 | 227 | 6.4 | 14.5 | 0.00 | 0.00 | 0.00 | 43 | 1016.2 |
| 20260831152118 | 32 | 224 | 6.4 | 12.9 | 0.00 | 0.00 | 0.00 | 45 | 1016.2 |
| 20260831151616 | 32 | 216 | 6.4 | 12.9 | 0.00 | 0.00 | 0.00 | 46 | 1016.1 |
| 20260831151115 | 32 | 149 | 4.8 | 12.9 | 0.00 | 0.00 | 0.00 | 46 | 1016.1 |
| 20260831150614 | 31 | 224 | 4.8 | 12.9 | 0.00 | 0.00 | 0.00 | 47 | 1016.0 |
| 20260831150537 | 31 | 208 | 4.8 | 11.3 | 0.00 | 0.00 | 0.00 | 48 | 1016.1 |
| 20260831145550 | 31 | 232 | 3.2 | 12.9 | 0.00 | 0.00 | 0.00 | 51 | 1016.0 |
| 20260831145045 | 31 | 150 | 3.2 | 12.9 | 0.00 | 0.00 | 0.00 | 51 | 1016.0 |
| 20260831144814 | 31 | 235 | 1.6 | 8.0 | 0.00 | 0.00 | 0.00 | 53 | 1015.9 |
| 20260831144021 | 30 | 231 | 1.6 | 8.0 | 0.00 | 0.00 | 0.00 | 57 | 1016.0 |
| 20260831143523 | 30 | 150 | 1.6 | 8.0 | 0.00 | 0.00 | 0.00 | 57 | 1016.0 |
| 20260831142959 | 30 | 159 | 1.6 | 8.0 | 0.00 | 0.00 | 0.00 | 57 | 1016.0 |
| 20260831142456 | 30 | 223 | 1.6 | 8.0 | 0.00 | 0.00 | 0.00 | 59 | 1016.0 |
| 20260831141952 | 29 | 203 | 1.6 | 9.7 | 0.00 | 0.00 | 0.00 | 60 | 1016.0 |
| 20260831141450 | 29 | 136 | 1.6 | 9.7 | 0.00 | 0.00 | 0.00 | 60 | 1016.0 |
| 20260831140949 | 28 | 159 | 1.6 | 6.4 | 0.00 | 0.00 | 0.00 | 61 | 1016.0 |
| 20260831140449 | 28 | 261 | 1.6 | 8.0 | 0.00 | 0.00 | 0.00 | 62 | 1016.0 |
| 20260831135949 | 28 | 176 | 3.2 | 8.0 | 0.00 | 0.00 | 0.00 | 63 | 1015.9 |
| 20260831135423 | 28 | 245 | 3.2 | 8.0 | 0.00 | 0.00 | 0.00 | 63 | 1015.9 |
| 20260831134921 | 28 | 146 | 1.6 | 8.0 | 0.00 | 0.00 | 0.00 | 65 | 1015.9 |
| 20260831134414 | 27 | 229 | 1.6 | 9.7 | 0.00 | 0.00 | 0.00 | 66 | 1015.9 |
| 20260831133850 | 27 | 201 | 3.2 | 9.7 | 0.00 | 0.00 | 0.00 | 67 | 1015.7 |
| 20260831133324 | 27 | 143 | 3.2 | 9.7 | 0.00 | 0.00 | 0.00 | 67 | 1015.7 |
| 20260831132759 | 27 | 117 | 4.8 | 9.7 | 0.00 | 0.00 | 0.00 | 68 | 1015.6 |
| 20260831132527 | 27 | 194 | 4.8 | 9.7 | 0.00 | 0.00 | 0.00 | 68 | 1015.5 |
| 20260831131734 | 26 | 240 | 1.6 | 8.0 | 0.00 | 0.00 | 0.00 | 68 | 1015.4 |
| 20260831131232 | 26 | 135 | 1.6 | 9.7 | 0.00 | 0.00 | 0.00 | 68 | 1015.4 |
| 20260831130704 | 26 | 219 | 1.6 | 9.7 | 0.00 | 0.00 | 0.00 | 69 | 1015.3 |
| 20260831130200 | 26 | 140 | 3.2 | 6.4 | 0.00 | 0.00 | 0.00 | 69 | 1015.3 |
| 20260831125659 | 26 | 174 | 1.6 | 6.4 | 0.00 | 0.00 | 0.00 | 69 | 1015.3 |
| 20260831125423 | 26 | 185 | 1.6 | 8.0 | 0.00 | 0.00 | 0.00 | 70 | 1015.2 |
| 20260831124623 | 26 | 141 | 1.6 | 8.0 | 0.00 | 0.00 | 0.00 | 70 | 1015.1 |
| 20260831124320 | 26 | 169 | 0.0 | 6.4 | 0.00 | 0.00 | 0.00 | 70 | 1015.1 |
| 20260831123557 | 26 | 219 | 1.6 | 6.4 | 0.00 | 0.00 | 0.00 | 70 | 1014.9 |
| 20260831123031 | 26 | 139 | 1.6 | 4.8 | 0.00 | 0.00 | 0.00 | 70 | 1014.8 |
| 20260831122500 | 26 | 148 | 1.6 | 6.4 | 0.00 | 0.00 | 0.00 | 70 | 1014.8 |
| 20260831121958 | 26 | 224 | 1.6 | 6.4 | 0.00 | 0.00 | 0.00 | 70 | 1014.7 |
| 20260831121713 | 26 | 257 | 1.6 | 6.4 | 0.00 | 0.00 | 0.00 | 69 | 1014.7 |
| 20260831120948 | 26 | 214 | 1.6 | 6.4 | 0.00 | 0.00 | 0.00 | 69 | 1014.6 |
| 20260831120423 | 25 | 259 | 1.6 | 6.4 | 0.00 | 0.00 | 0.00 | 69 | 1014.6 |
| 20260831115920 | 25 | 184 | 1.6 | 4.8 | 0.00 | 0.00 | 0.00 | 69 | 1014.5 |
| 20260831115418 | 25 | 251 | 0.0 | 1.6 | 0.00 | 0.00 | 0.00 | 68 | 1014.4 |
| 20260831114915 | 25 | 140 | 0.0 | 4.8 | 0.00 | 0.00 | 0.00 | 67 | 1014.4 |
| 20260831114411 | 25 | 124 | 0.0 | 3.2 | 0.00 | 0.00 | 0.00 | 67 | 1014.3 |
| 20260831114141 | 25 | 256 | 0.0 | 3.2 | 0.00 | 0.00 | 0.00 | 67 | 1014.3 |
| 20260831113625 | 25 | 127 | 0.0 | 3.2 | 0.00 | 0.00 | 0.00 | 67 | 1014.2 |